1325116829595,0.994534
1325116889595,0.995235
1325116949595,0.996514
1325117009595,0.993307
1325117069595,0.997563
1325117129595,0.992357
1325117189595,0.993710
1325117249595,0.987783
1325117309595,1.00411
1325117369595,0.991929
1325117429595,0.998458
1325117489595,1.00113
1325117549595,0.990165
1325117609595,0.996663
1325117669595,0.991485
1325117729595,0.987312
1325117789596,0.986412
1325117849595,0.987351
1325117909595,0.986550
1325117969595,0.995523
1325118029595,0.988731
1325118089595,0.994251
1325118149595,0.984438
1325118209595,0.995177
1325118269595,0.990521
1325118329595,0.987734
1325118389595,0.997732
1325118449595,0.996385
1325118509595,1.00180
1325118569595,1.00214
1325118629595,0.990218
1325118689595,0.987833
1325118749595,0.995494
1325118809595,0.996004
1325118869595,0.995930
1325118929595,0.991206
1325118989595,0.989829
1325119049595,0.985748
1325119109595,0.992589
1325119169595,0.985817
1325119229595,0.991307
1325119289595,0.987883
1325119349595,0.995324
1325119409595,0.995511
1325119469595,0.987274
1325119529595,0.986253
1325119589595,0.997296
1325119649595,0.993335
1325119709595,0.995650
1325119769595,0.994164
1325119829595,0.989543
1325119889595,0.990916
1325119949595,0.992894
1325120009595,0.993325
1325120069595,0.981193
1325120129595,0.987923
1325120189595,0.995383
1325120249595,0.999920
1325120309595,0.992201
1325120369595,0.997826
1325120429606,0.991705
1325120489606,1.00246
1325120549606,1.00223
1325120609606,0.993240
1325120669606,1.00457
1325120729606,0.997287
1325120789606,1.00043
1325120849606,1.00615
1325120909606,1.00421
1325120969606,0.996937
1325121029606,0.996842
1325121089606,1.00063
1325121149606,0.995856
1325121209606,0.994632
1325121269606,1.00021
1325121329606,0.988675
1325121389606,0.997898
1325121449606,0.994807
1325121509606,0.991462
1325121569606,0.992093
1325121629606,0.997004
1325121689606,0.987617
1325121749606,0.987743
1325121809606,0.987622
1325121869606,0.986561
1325121929606,0.986548
1325121989606,0.998828
1325122049606,0.986549
1325122109606,0.992800
1325122169606,0.992243
1325122229606,0.991981
1325122289606,0.998037
1325122349606,0.994442
1325122409606,0.996622
1325122469606,0.995840
1325122529606,0.992024
1325122589606,0.982211
1325122649606,0.994980
1325122709606,0.990929
1325122769606,0.992974
1325122829606,0.994691
1325122889606,0.989863
1325122949606,0.994510
1325123009606,0.998241
1325123069606,0.994873
1325123129606,0.999931
1325123189606,0.987790
1325123249606,0.995621
1325123309606,0.998149
1325123369606,0.988331
1325123429606,0.992671
1325123489606,0.991082
1325123549606,0.997167
1325123609606,0.994228
1325123669606,0.992066
1325123729606,0.990941
1325123789606,1.00351
1325123849606,0.995040
1325123909606,0.999258
1325123969606,1.00017
1325124029616,1.00024
1325124089616,0.991487
1325124149616,1.00457
1325124209616,1.00450
1325124269616,1.01187
1325124329616,1.00694
1325124389616,1.00646
1325124449616,1.00773
1325124509616,0.989823
1325124569616,0.998792
1325124629616,1.00017
1325124689616,1.00643
1325124749616,1.01176
1325124809616,1.01215
1325124869616,1.01093
1325124929616,1.00999
1325124989616,1.02155
1325125049616,1.01655
1325125109616,1.01880
1325125169616,1.02095
1325125229616,1.02654
1325125289616,1.02413
1325125349616,1.02588
1325125409616,1.02446
1325125469616,1.02172
1325125529616,1.02003
1325125589616,1.01915
1325125649616,1.02264
1325125709616,1.02634
1325125769616,1.01859
1325125829616,1.01344
1325125889616,1.02262
1325125949616,1.01843
1325126009616,1.01369
1325126069616,1.02243
1325126129616,1.01725
1325126189616,1.01980
1325126249616,1.01311
1325126309616,1.01368
1325126369616,1.01791
1325126429616,1.01208
1325126489616,1.01299
1325126549616,1.00709
1325126609616,1.00438
1325126669616,1.00576
1325126729616,1.00381
1325126789616,1.00903
1325126849616,1.00961
1325126909616,1.00675
1325126969616,1.00695
1325127029616,1.00027
1325127089616,1.00112
1325127149616,1.00561
1325127209616,1.00997
1325127269616,1.01032
1325127329616,1.00850
1325127389616,1.00967
1325127449616,1.01106
1325127509616,1.01278
1325127569616,0.999070
1325127629626,1.01474
1325127689626,1.02329
1325127749626,1.01450
1325127809626,1.02267
1325127869626,1.01992
1325127929626,1.00972
1325127989626,1.02147
1325128049626,1.01647
1325128109626,1.01679
1325128169626,1.01151
1325128229626,1.00606
1325128289626,1.00947
1325128349626,1.00612
1325128409626,1.00823
1325128469626,1.02139
1325128529626,1.01545
1325128589626,1.02554
1325128649626,1.01476
1325128709626,1.02885
1325128769626,1.02301
1325128829626,1.02735
1325128889626,1.02926
1325128949626,1.03311
1325129009626,1.03222
1325129069626,1.03476
1325129129626,1.02712
1325129189626,1.01979
1325129249626,1.03161
1325129309626,1.03066
1325129369626,1.02158
1325129429626,1.03234
1325129489626,1.02062
1325129549626,1.01551
1325129609626,1.02455
1325129669626,1.01471
1325129729626,1.01592
1325129789626,1.02359
1325129849626,1.02129
1325129909626,1.02042
1325129969626,1.02560
1325130029626,1.01850
1325130089626,1.01753
1325130149626,1.02119
1325130209626,1.02267
1325130269626,1.02004
1325130329626,1.01948
1325130389626,1.01722
1325130449626,1.01367
1325130509626,1.01338
1325130569626,1.01156
1325130629626,1.02284
1325130689626,1.01685
1325130749626,1.01538
1325130809626,1.00545
1325130869626,1.01283
1325130929626,1.01241
1325130989626,1.01062
1325131049626,1.00959
1325131109626,1.00906
1325131169626,1.00957
1325131229636,1.00883
1325131289636,1.00990
1325131349636,1.03410
1325131409636,1.03811
1325131469636,1.03486
1325131529636,1.05012
1325131589636,1.04931
1325131649636,1.05070
1325131709636,1.05193
1325131769636,1.04818
1325131829636,1.04812
1325131889636,1.05424
1325131949636,1.05636
1325132009636,1.06845
1325132069636,1.05819
1325132129636,1.06257
1325132189636,1.05331
1325132249636,1.05168
1325132309636,1.04597
1325132369636,1.04782
1325132429636,1.04657
1325132489636,1.04519
1325132549636,1.04500
1325132609636,1.04657
1325132669636,1.04177
1325132729636,1.03952
1325132789636,1.03970
1325132849636,1.04065
1325132909636,1.03136
1325132969636,1.03380
1325133029636,1.03525
1325133089636,1.03241
1325133149636,1.03017
1325133209636,1.03085
1325133269636,1.03204
1325133329636,1.02747
1325133389636,1.02650
1325133449636,1.01865
1325133509636,1.02358
1325133569636,1.02407
1325133629636,1.02518
1325133689636,1.02279
1325133749636,1.02160
1325133809636,1.01659
1325133869636,1.00733
1325133929636,1.01424
1325133989636,1.01275
1325134049636,1.00853
1325134109636,1.01049
1325134169636,1.01792
1325134229636,1.00957
1325134289636,1.00565
1325134349636,1.01692
1325134409636,1.01447
1325134469636,1.01498
1325134529636,1.01324
1325134589636,1.00662
1325134649636,1.00080
1325134709636,1.01018
1325134769636,1.00698
1325134829646,1.01203
1325134889646,1.00822
1325134949646,1.00879
1325135009646,1.00159
1325135069646,1.01045
1325135129646,1.00395
1325135189646,1.00774
1325135249646,1.00151
1325135309646,1.00892
1325135369646,1.00480
1325135429646,1.01024
1325135489646,1.00461
1325135549646,1.00715
1325135609646,1.00850
1325135669646,1.00346
1325135729646,1.01169
1325135789646,1.00704
1325135849646,1.01383
1325135909646,1.01362
1325135969646,1.02229
1325136029646,1.03050
1325136089646,1.03042
1325136149646,1.03638
1325136209646,1.03588
1325136269646,1.04142
1325136329646,1.04304
1325136389646,1.03852
1325136449646,1.03963
1325136509646,1.04605
1325136569646,1.03585
1325136629646,1.03449
1325136689646,1.03979
1325136749646,1.03171
1325136809646,1.03186
1325136869646,1.02433
1325136929646,1.03672
1325136989646,1.03162
1325137049646,1.02700
1325137109646,1.02487
1325137169646,1.02605
1325137229646,1.03028
1325137289646,1.02630
1325137349646,1.02341
1325137409646,1.02587
1325137469646,1.02694
1325137529646,1.01631
1325137589646,1.02295
1325137649646,1.01848
1325137709646,1.02295
1325137769646,1.02047
1325137829646,1.01094
1325137889646,1.01192
1325137949646,1.01401
1325138009646,1.00370
1325138069646,1.01797
1325138129646,1.01116
1325138189646,1.01401
1325138249646,1.01138
1325138309646,1.01892
1325138369646,1.01988
1325138429657,1.01731
1325138489657,1.02021
1325138549657,1.01546
1325138609657,1.02256
1325138669657,1.01876
1325138729657,1.01881
1325138789657,1.01812
1325138849657,1.02241
1325138909657,1.02484
1325138969657,1.02280
1325139029657,1.02418
1325139089657,1.01464
1325139149657,1.01626
1325139209657,1.01335
1325139269657,1.01789
1325139329657,1.00840
1325139389657,1.01418
1325139449657,1.01864
1325139509657,1.02960
1325139569657,1.03992
1325139629657,1.03965
1325139689657,1.04850
1325139749657,1.04783
1325139809657,1.05463
1325139869657,1.05698
1325139929657,1.05284
1325139989657,1.06057
1325140049657,1.05847
1325140109657,1.05768
1325140169657,1.06637
1325140229657,1.05958
1325140289657,1.05584
1325140349657,1.05836
1325140409657,1.04312
1325140469657,1.04785
1325140529657,1.04869
1325140589657,1.04699
1325140649657,1.04562
1325140709657,1.04163
1325140769657,1.03474
1325140829657,1.03659
1325140889657,1.03569
1325140949657,1.03034
1325141009657,1.03224
1325141069657,1.03306
1325141129657,1.02425
1325141189657,1.02518
1325141249657,1.01773
1325141309657,1.02350
1325141369657,1.01926
1325141429657,1.01814
1325141489657,1.01911
1325141549657,1.02757
1325141609657,1.01499
1325141669657,1.02644
1325141729657,1.02554
1325141789657,1.03392
1325141849657,1.02854
1325141909657,1.02171
1325141969657,1.01663
1325142029668,1.01255
1325142089668,1.02329
1325142149668,1.01612
1325142209668,1.02046
1325142269668,1.02097
1325142329668,1.01552
1325142389668,1.02018
1325142449668,1.02051
1325142509668,1.02617
1325142569668,1.02788
1325142629668,1.02460
1325142689668,1.01946
1325143229668,1.18484
1325143289668,1.17260
1325143349668,1.14583
1325143409668,1.11963
1325143469668,1.10891
1325143529668,1.09456
1325143589668,1.08237
1325143649668,1.08035
1325143709668,1.08807
1325143769668,1.09237
1325143829668,1.09865
1325143889668,1.09395
1325143949668,1.09971
1325144009668,1.09741
1325144069668,1.09677
1325144129668,1.10157
1325144189668,1.10709
1325144249668,1.11336
1325144309668,1.11720
1325144369668,1.10286
1325144429668,1.10088
1325144489668,1.10686
1325144549668,1.09451
1325144609668,1.10333
1325144669668,1.09628
1325144729668,1.08872
1325144789668,1.08394
1325144849668,1.08360
1325144909668,1.08112
1325144969668,1.07854
1325145029668,1.07028
1325145089668,1.06220
1325145149668,1.07060
1325145209668,1.05310
1325145269668,1.05707
1325145329668,1.05424
1325145389668,1.04993
1325145449668,1.05451
1325145509668,1.05216
1325145569668,1.04447
1325145629679,1.05117
1325145689679,1.04358
1325145749679,1.04149
1325145809679,1.04018
1325145869679,1.04196
1325145929679,1.03676
1325145989679,1.02953
1325146049679,1.03578
1325146109679,1.03596
1325146169679,1.03621
1325146229679,1.04039
1325146289679,1.03468
1325146349679,1.02720
1325146409679,1.03478
1325146469679,1.03719
1325146529679,1.02944
1325146589679,1.02784
1325146649679,1.03892
1325146709679,1.03731
1325146769679,1.02368
1325146829679,1.02068
1325146889679,1.03301
1325146949679,1.01779
1325147009679,1.03417
1325147069679,1.01898
1325147129679,1.02492
1325147189679,1.02982
1325147249679,1.02650
1325147309679,1.02820
1325147369679,1.01835
1325147429679,1.02691
1325147489679,1.02647
1325147549679,1.02606
1325147609679,1.01749
1325147669679,1.02087
1325147729679,1.02306
1325147789679,1.01296
1325147849679,1.01786
1325147909679,1.02522
1325147969679,1.01959
1325148029679,1.02464
1325148089679,1.03056
1325148149679,1.02759
1325148209679,1.04290
1325148269679,1.05219
1325148329679,1.05336
1325148389679,1.05690
1325148449679,1.05005
1325148509679,1.06586
1325148569679,1.08872
1325148629679,1.09292
1325148689679,1.09153
1325148749679,1.09044
1325148809679,1.08251
1325148869679,1.08412
1325148929679,1.08632
1325148989679,1.07411
1325149049679,1.06650
1325149109679,1.06821
1325149169679,1.07083
1325149229690,1.07134
1325149289690,1.06606
1325149349690,1.06544
1325149409690,1.05516
1325149469690,1.05468
1325149529690,1.04937
1325149589690,1.05264
1325149649690,1.04777
1325149709690,1.03785
1325149769690,1.04172
1325149829690,1.03585
1325149889690,1.02912
1325149949690,1.03698
1325150009690,1.02604
1325150069690,1.02481
1325150129690,1.02274
1325150189690,1.02580
1325150249690,1.02167
1325150309690,1.02202
1325150369690,1.01737
1325150429690,1.01976
1325150489690,1.01974
1325150549690,1.02029
1325150609690,1.01487
1325150669690,1.00732
1325150729690,1.02140
1325150789690,1.01196
1325150849690,1.01864
1325150909690,1.00846
1325150969690,1.01110
1325151029690,1.00590
1325151089690,1.01969
1325151149690,1.01692
1325151209690,1.01310
1325151269690,1.01266
1325151329690,1.01205
1325151389690,1.00762
1325151449690,1.01344
1325151509690,1.01158
1325151569690,1.01029
1325151629690,1.01493
1325151689690,1.01592
1325151749690,1.01280
1325151809690,1.01087
1325151869690,1.01670
1325151929690,1.02185
1325151989690,1.02880
1325152049690,1.03131
1325152109690,1.03846
1325152169690,1.04317
1325152229690,1.04757
1325152289690,1.04873
1325152349690,1.04946
1325152409690,1.04596
1325152469690,1.04221
1325152529690,1.03674
1325152589690,1.03279
1325152649690,1.03157
1325152709690,1.03805
1325152769690,1.01815
1325152829702,1.03284
1325152889702,1.02190
1325152949702,1.03400
1325153009702,1.02702
1325153069702,1.02979
1325153129702,1.02394
1325153189702,1.02099
1325153249702,1.02247
1325153309702,1.02337
1325153369702,1.02359
1325153429702,1.02088
1325153489702,1.01541
1325153549702,1.02064
1325153609702,1.00938
1325153669702,1.00651
1325153729702,1.00539
1325153789702,1.00237
1325153849702,1.00747
1325153909702,1.01251
1325153969702,1.00583
1325154029702,1.00308
1325154089702,1.00382
1325154149702,1.00520
1325154209702,1.00196
1325154269702,0.995409
1325154329702,1.00229
1325154389702,0.994144
1325154449702,1.00482
1325154509702,1.00262
1325154569702,0.997964
1325154629702,0.994099
1325154689702,1.00412
1325154749702,1.00523
1325154809702,1.00728
1325154869702,1.00280
1325154929702,1.00114
1325154989702,1.00200
1325155049702,1.00241
1325155109702,1.00453
1325155169702,0.999810
1325155229702,1.00303
1325155289702,1.00196
1325155349702,1.00625
1325155409702,0.995742
1325155469702,1.00708
1325155529702,0.997883
1325155589702,0.992647
1325155649702,0.995849
1325155709702,1.00201
1325155769702,0.999982
1325155829702,0.997442
1325155889702,1.00651
1325155949702,0.991751
1325156009702,1.01204
1325156069702,1.01456
1325156129702,1.00799
1325156189702,1.01444
1325156249702,1.01247
1325156309702,1.00864
1325156369702,1.01652
1325156429714,1.01780
1325156489714,1.01581
1325156549714,1.01420
1325156609714,1.00546
1325156669714,1.01797
1325156729714,1.01394
1325156789714,1.00814
1325156849714,1.01428
1325156909714,1.01522
1325156969714,1.00802
1325157029714,1.00253
1325157089714,1.01236
1325157149714,1.00230
1325157209714,1.00362
1325157269714,0.996934
1325157329714,1.01094
1325157389714,0.998873
1325157449714,0.996363
1325157509714,1.00795
1325157569714,1.00125
1325157629714,0.995857
1325157689714,1.00148
1325157749714,1.00839
1325157809714,1.00309
1325157869714,0.997559
1325157929714,0.998461
1325157989714,1.00509
1325158049714,0.998241
1325158109714,0.996670
1325158169714,1.00387
1325158229714,1.00086
1325158289714,1.00027
1325158349714,1.00162
1325158409714,0.998479
1325158469714,1.00485
1325158529714,1.00444
1325158589714,0.994099
1325158649714,1.00223
1325158709714,0.990749
1325158769714,1.00007
1325158829714,1.00688
1325158889714,1.01439
1325158949714,1.01305
1325159009714,1.01337
1325159069714,1.01943
1325159129714,1.02155
1325159189714,1.02524
1325159249714,1.01860
1325159309714,1.01180
1325159369714,1.00779
1325159429714,1.00995
1325159489714,1.01056
1325159549714,1.00472
1325159609714,1.00855
1325159669714,1.00244
1325159729714,1.01733
1325159789714,0.999269
1325159849714,1.00890
1325159909714,1.00997
1325159969714,1.00950
1325160029725,1.01182
1325160089725,1.00550
1325160149725,1.00622
1325160209725,1.02168
1325160269725,1.01431
1325160329725,1.01719
1325160389725,1.01200
1325160449725,1.01984
1325160509725,1.02217
1325160569725,1.02534
1325160629725,1.03281
1325160689725,1.03844
1325160749725,1.04259
1325160809725,1.03737
1325160869725,1.03469
1325160929725,1.02800
1325160989725,1.02818
1325161049725,1.02833
1325161109725,1.03184
1325161169725,1.02547
1325161229725,1.02409
1325161289725,1.02797
1325161349725,1.02337
1325161409725,1.03258
1325161469725,1.02865
1325161529725,1.02251
1325161589725,1.02837
1325161649725,1.02917
1325161709725,1.02523
1325161769725,1.03217
1325161829725,1.02723
1325161889725,1.02618
1325161949725,1.02652
1325162009725,1.02441
1325162069725,1.02197
1325162129725,1.02411
1325162189725,1.02700
1325162249725,1.02657
1325162309725,1.02391
1325162369725,1.01943
1325162429725,1.02340
1325162489725,1.02405
1325162549725,1.02472
1325162609725,1.02747
1325162669725,1.02576
1325162729725,1.02396
1325162789725,1.02474
1325162849725,1.02400
1325162909725,1.02854
1325162969725,1.03048
1325163029725,1.03148
1325163089725,1.03035
1325163149725,1.03034
1325163209725,1.03267
1325163269725,1.02923
1325163329725,1.03998
1325163389725,1.03340
1325163449725,1.02727
1325163509725,1.03215
1325163569725,1.03997
1325163629737,1.03216
1325163689737,1.03664
1325163749737,1.03726
1325163809737,1.03864
1325163869737,1.04760
1325163929737,1.04334
1325163989737,1.05685
1325164049737,1.04542
1325164109737,1.04576
1325164169737,1.08980
1325164229737,1.04567
1325164289737,1.04939
1325164349737,1.04507
1325164409737,1.05140
1325164469737,1.04923
1325164529737,1.04447
1325164589737,1.04204
1325164649737,1.04852
1325164709737,1.04534
1325164769737,1.04999
1325164829737,1.06358
1325164889737,1.05840
1325164949737,1.06128
1325165009737,1.06439
1325165069737,1.05623
1325165129737,1.05885
1325165189737,1.05609
1325165249737,1.06473
1325165309737,1.06510
1325165369737,1.05522
1325165429737,1.05487
1325165489737,1.05291
1325165549737,1.04588
1325165609737,1.04515
1325165669737,1.04353
1325165729737,1.04793
1325165789737,1.04529
1325165849737,1.04000
1325165909737,1.05126
1325165969737,1.05500
1325166029737,1.05059
1325166089737,1.05451
1325166149737,1.05523
1325166209737,1.07131
1325166269737,1.08643
1325166329737,1.10161
1325166389737,1.08703
1325166449737,1.08908
1325166509737,1.12374
1325166569737,1.16268
1325166629737,1.21954
1325166689737,1.27113
1325166749737,1.30577
1325166809737,1.31168
1325166869737,1.31429
1325166929737,1.31329
1325166989737,1.30049
1325167049737,1.30896
1325167109737,1.32923
1325167169737,1.33350
1325167229749,1.33147
1325167289749,1.33476
1325167349749,1.32159
1325167409749,1.30581
1325167469749,1.29908
1325167529749,1.28739
1325167589749,1.27956
1325167649749,1.27823
1325167709749,1.27057
1325167769749,1.26120
1325167829749,1.23827
1325167889749,1.23778
1325167949749,1.23082
1325168009749,1.22466
1325168069749,1.19563
1325168129749,1.18874
1325168189749,1.16775
1325168249749,1.16055
1325168309749,1.14346
1325168369749,1.13499
1325168429749,1.12742
1325168489749,1.12541
1325168549749,1.11005
1325168609749,1.10206
1325168669749,1.10348
1325168729749,1.08354
1325168789749,1.09631
1325168849749,1.08337
1325168909749,1.07592
1325168969749,1.07536
1325169029749,1.07097
1325169089749,1.07690
1325169149749,1.07201
1325169209749,1.07802
1325169269749,1.07418
1325169329749,1.06743
1325169389749,1.07028
1325169449749,1.06763
1325169509749,1.07726
1325169569749,1.06352
1325169629749,1.06046
1325169689749,1.05549
1325169749749,1.04938
1325169809749,1.05371
1325169869749,1.05351
1325169929749,1.04909
1325169989749,1.04504
1325170049749,1.04293
1325170109749,1.05008
1325170169749,1.02975
1325170229749,1.03616
1325170289749,1.06654
1325170349749,1.03301
1325170409749,1.03587
1325170469749,1.03270
1325170529749,1.01828
1325170589749,1.02505
1325170649749,1.02803
1325170709749,1.03246
1325170769749,1.02855
1325170829760,1.04761
1325170889760,1.03545
1325170949760,1.03380
1325171009760,1.03543
1325171069760,1.03100
1325171129760,1.03880
1325171189760,1.03812
1325171249760,1.03821
1325171309760,1.04029
1325171369760,1.03240
1325171429760,1.04009
1325171489760,1.02909
1325171549760,1.03345
1325171609760,1.02587
1325171669760,1.02641
1325171729760,1.03331
1325171789760,1.02951
1325171849760,1.02118
1325171909760,1.02653
1325171969760,1.03208
1325172029760,1.02405
1325172089760,1.02396
1325172149760,1.02128
1325172209760,1.02971
1325172269760,1.02992
1325172329760,1.03045
1325172389760,1.02496
1325172449760,1.02292
1325172509760,1.02404
1325172569760,1.02399
1325172629760,1.02482
1325172689760,1.02094
1325172749760,1.02451
1325172809760,1.02740
1325172869760,1.00925
1325172929760,1.02236
1325172989760,1.01934
1325173049760,1.01797
1325173109760,1.01628
1325173169760,1.01588
1325173229760,1.01612
1325173289760,1.01329
1325173349760,1.01223
1325173409760,1.01442
1325173469760,1.00678
1325173529760,1.00332
1325173589760,1.01774
1325173649760,1.00289
1325173709760,1.00526
1325173769760,1.00537
1325173829760,1.01021
1325173889760,1.01400
1325173949760,1.00078
1325174009760,0.998653
1325174069760,1.00094
1325174129760,1.01187
1325174189760,1.00492
1325174249760,1.00094
1325174309760,1.00604
1325174369760,1.01350
1325174429772,1.00636
1325174489772,1.00860
1325174549772,1.00454
1325174609772,1.01487
1325174669772,1.01673
1325174729772,1.01419
1325174789772,1.01250
1325174849772,1.01817
1325174909772,1.00845
1325174969772,1.02075
1325175029772,1.01584
1325175089772,1.01743
1325175149772,1.01895
1325175209772,1.01708
1325175269772,1.02681
1325175329772,1.02526
1325175389772,1.02485
1325175449772,1.03626
1325175509772,1.03910
1325175569772,1.03900
1325175629772,1.06218
1325175689772,1.05993
1325175749772,1.05500
1325175809772,1.06293
1325175869772,1.07154
1325175929772,1.07354
1325175989772,1.07686
1325176049772,1.06419
1325176109772,1.07316
1325176169772,1.07447
1325176229772,1.07700
1325176289772,1.07976
1325176349772,1.07266
1325176409772,1.07777
1325176469772,1.08140
1325176529772,1.07509
1325176589772,1.08166
1325176649772,1.06981
1325176709772,1.07455
1325176769772,1.07977
1325176829772,1.06377
1325176889772,1.06580
1325176949772,1.06286
1325177009772,1.06189
1325177069772,1.05986
1325177129772,1.05255
1325177189772,1.05492
1325177249772,1.04460
1325177309772,1.05265
1325177369772,1.03781
1325177429772,1.04616
1325177489772,1.03655
1325177549772,1.03790
1325177609772,1.03877
1325177669772,1.03465
1325177729772,1.03815
1325177789772,1.04545
1325177849772,1.03636
1325177909772,1.04663
1325177969772,1.05050
1325178029783,1.05361
1325178089783,1.05637
1325178149783,1.06617
1325178209783,1.06884
1325178269783,1.07414
1325178329783,1.07448
1325178389783,1.08051
1325178449783,1.07425
1325178509783,1.06607
1325178569783,1.06276
1325178629783,1.07204
1325178689783,1.05892
1325178749783,1.06140
1325178809783,1.05440
1325178869783,1.05055
1325178929783,1.06188
1325178989783,1.04785
1325179049783,1.03848
1325179109783,1.03650
1325179169783,1.03251
1325179229783,1.04208
1325179289783,1.03386
1325179349783,1.04065
1325179409783,1.03881
1325179469783,1.04039
1325179529783,1.03431
1325179589783,1.03430
1325179649783,1.03141
1325179709783,1.02672
1325179769783,1.02979
1325179829783,1.03641
1325179889783,1.04951
1325179949783,1.06623
1325180009783,1.06671
1325180069783,1.07102
1325180129783,1.06200
1325180189783,1.06290
1325180249783,1.06283
1325180309783,1.06930
1325180369783,1.06235
1325180429783,1.06914
1325180489783,1.07418
1325180549783,1.07019
1325180609783,1.07952
1325180669783,1.08666
1325180729783,1.08322
1325180789783,1.07976
1325180849783,1.07812
1325180909783,1.07638
1325180969783,1.06860
1325181029783,1.06972
1325181089783,1.05304
1325181149783,1.05822
1325181209783,1.04883
1325181269783,1.04003
1325181329783,1.02620
1325181389783,1.03742
1325181449783,1.04059
1325181509783,1.03101
1325181569783,1.05116
1325181629794,1.03146
1325181689794,1.02998
1325181749794,1.02805
1325181809794,1.01200
1325181869794,1.01574
1325181929794,1.01853
1325181989794,1.01522
1325182049794,1.01620
1325182109794,1.02712
1325182169794,1.02092
1325182229794,1.01573
1325182289794,1.03210